Regional Weather Roundup
Issued by NWS Goodland, KS

Home | Current Version | Previous Version | Graphics & Text | Print | Product List | Glossary On
Versions: 1 2 3 4 5 6 7 8 9 10 11 12 13 14 15 16 17 18 19 20 21 22 23 24 25 26 27 28 29 30 31 32 33 34 35 36 37 38 39 40 41 42 43 44 45 46 47 48 49 50
000
ASUS43 KGLD 270508
RWRGLD

GOODLAND FORECAST AREA HOURLY WEATHER ROUNDUP
NATIONAL WEATHER SERVICE GOODLAND KS
1000 PM MST MON JAN 26 2015

...OFFICIAL OBSERVATIONS...

CITY           SKY/WX    TMP DP  RH WIND       PRES   REMARKS
GOODLAND KS    PTCLDY    43  30  60 SW9       30.15F
HILL CITY KS   CLEAR     42  28  57 W6        30.10S
IMPERIAL NEB   CLEAR     41  30  65 W9        30.10S
MCCOOK NEB     CLEAR     40  29  64 W7        30.08F
AKRON CO       PTCLDY    47  27  45 SW13      30.16F
BURLINGTON CO  PTCLDY    40  30  67 SW9       30.17F
LIMON CO       CLEAR     28  24  85 N7        30.24S
$$

...UNOFFICIAL OBSERVATIONS...

CITY           SKY/WX    TMP DP  RH WIND       PRES   REMARKS
COLBY KS       CLEAR     37  34  87 W9        30.14S
GOVE KS          N/A     37  32  82 MISG        N/A
NORTON KS      CLEAR     36  25  64 SW9       30.07S
SHARON SPRINGS   N/A     38  30  72 W8          N/A
KIT CARSON CO    N/A     34  25  69 MISG        N/A
YUMA CO          N/A     37  28  71 W5          N/A
$$



USA.gov is the U.S. government's official web portal to all federal, state and local government web resources and services.